Other Surface Observations
Issued by NWS

Home | Current Version | Previous Version | Text Only | Print | Product List | Glossary On
Versions: 1 2 3 4 5 6 7 8 9 10 11 12 13 14 15 16 17 18 19 20 21 22 23 24 25 26 27 28 29 30 31 32 33 34 35 36 37 38 39 40 41 42 43 44 45 46 47 48 49 50
000
SXUS52 KTAE 261906
OSOTAE
OSOTAE
North Florida/South Alabama/Southwest Georgia Weather Roundup
National Weather Service Tallahassee Florida
300 PM EDT TUE SEP 26 2017

Note: "fair" indicates few or no clouds below 12,000 feet with no
significant weather and/or obstructions to visibility.

!FLZ017-115-028-034-025-262000
...North Florida...

CITY           SKY/WX    TMP DP  RH WIND       PRES   REMARKS
TALLAHASSEE    MOSUNNY   90  66  45 N8        29.89F HX  92
APALACHICOLA   SUNNY     88  72  58 SW8       29.89F HX  94
PERRY          PTSUNNY   91  68  46 N5        29.89F HX  94
CROSS CITY     PTSUNNY   91  68  46 NW6       29.91F HX  95
JACKSONVILLE   MOSUNNY   88  67  49 N10       29.86F HX  91
$$

!FLZ112-006-005-002-011-262000
...Florida Panhandle...

CITY           SKY/WX    TMP DP  RH WIND       PRES   REMARKS
MARIANNA       SUNNY     92  65  40 N7        29.90F HX  94
BONIFAY        NOT AVBL
PANAMA CITY NW FAIR      90  70  51 SW7       29.88F HX  95
TYNDALL AFB    MOSUNNY   88  73  60 SW9       29.90F HX  95
TYND DRONE APT FAIR      86  73  66 SW6       29.89F HX  93
DE FUNIAK SPR  NOT AVBL
EGLIN AFB      MOSUNNY   87  69  54 SE8       29.90F HX  92
DESTIN         SUNNY     89  70  53 S7        29.90F HX  94
HURLBURT       MOSUNNY   87  60  40 S7        29.89F
CRESTVIEW      MOSUNNY   90  67  46 MISG      29.92F HX  93
PENSACOLA      MOSUNNY   89  72  56 S7        29.90F HX  96
$$

!ALZ063-066-262000
...South Alabama...

CITY           SKY/WX    TMP DP  RH WIND       PRES   REMARKS
DOTHAN         MOSUNNY   89  64  43 NE5       29.95F HX  90
OZARK CAIRNS   MOSUNNY   89  65  43 NW7       29.92F HX  91
FT RUCKER HELI MOSUNNY   88  66  47 N5        29.91F HX  90
RUCKER HELI 3  PTSUNNY   87  64  46 NE7       29.92F
RUCKER HELI 2  FAIR      88  64  44 NW7       29.91F
FLORALA APT    NOT AVBL
ANDALUSIA      MOSUNNY   92  61  35 CALM      29.91F HX  92
TROY           MOSUNNY   85  64  49 NE6       29.94F
EUFALA         FAIR      90  65  43 VRB7      29.91F HX  92
MOBILE         PTSUNNY   88  72  58 VRB5      29.91F HX  94
$$

!GAZ120>161-262000
...Southwest and South Central Georgia...

CITY           SKY/WX    TMP DP  RH WIND       PRES   REMARKS
THOMASVILLE    FAIR      90  63  40 W5        29.91F HX  90
BAINBRIDGE     SUNNY     91  68  46 N6        29.90F HX  95
MOODY AFB      MOSUNNY   87  66  49 N5        29.89F
VALDOSTA       MOSUNNY   88  66  48 NE8G20    29.89F HX  90
MOULTRIE       MOSUNNY   88  63  42 N3        29.91F
BLAKELY        MOSUNNY   90  63  40 NW5       29.91F HX  90
ALBANY         PTSUNNY   91  65  41 N8        29.92F HX  93
TIFTON         FAIR      88  65  47 N8        29.90F HX  90
FITZGERALD     MOCLDY    87  68  53 N6        29.93F HX  90
CORDELE        FAIR      92  62  36 N6        29.92F HX  93
AMERICUS       FAIR      88  57  35 W3        29.94F
HOMERVILLE     FAIR      88  64  45 NW9       29.89F
$$

!GMZ750-755-770-775-262000
...Coastal and Buoy Obs...

STATION/POSITION TIME  TEMP    WIND        PRES    VSBY  WAVE
                       AIR SEA DIR/SP/G                  HT/PER
                 (UTC) (F)     (DEG/KT/KT) (MB)    (MI)  (FT/S)
KEATON BEACH     1900   82     250/ 10/ 11 1011.6F
CEDAR KEY        1800   84     220/  4/  6 1012.9F
C TOWER          1900   82      CALM  /  1 1013.0F
APALACHICOLA BUO 1750   82 84  110/  4/  6 1013.0          0
PANAMA CITY BUOY 1850   82 83  100/  4/  6 1012.6F         1
MOBILE BUOY      1850   83 83   90/  6/  8 1012.8F         1/ 5
ORANGE BCH AL BU 1750   81 83   90/  6/  6 1013.3          1/ 5
$$




USA.gov is the U.S. government's official web portal to all federal, state and local government web resources and services.